Weather reports worldwide

Advertisment
Virac, Philippines (98446): temperature & dewpoint: 18.06.2019 22:00:00 - 24.06.2019 22:00:00 (PHT)Virac, Philippines (98446): wind speed: 18.06.2019 22:00:00 - 24.06.2019 22:00:00 (PHT)Virac, Philippines (98446): wind direction: 18.06.2019 22:00:00 - 24.06.2019 22:00:00 (PHT)Virac, Philippines (98446): reduced air pressure: 18.06.2019 22:00:00 - 24.06.2019 22:00:00 (PHT)Virac, Philippines (98446): visibility: 18.06.2019 22:00:00 - 24.06.2019 22:00:00 (PHT)
Date & Time tt [°C] td [°C] ff [km/h] ff [kn] dd ppp [hPa] vv [km]
24.06.2019 22:00:00 - - - - - - -
24.06.2019 21:00:00 - - - - - - -
24.06.2019 20:00:00 28,0 26,4 4 2 WNW 1009,6 15
24.06.2019 19:00:00 - - - - - - -
24.06.2019 18:00:00 - - - - - - -
24.06.2019 17:00:00 30,4 27,3 4 2 WSW 1008,0 20
24.06.2019 16:00:00 - - - - - - -
24.06.2019 15:00:00 - - - - - - -
24.06.2019 14:00:00 30,4 27,1 4 2 SW 1009,4 20
24.06.2019 13:00:00 - - - - - - -
24.06.2019 12:00:00 - - - - - - -
24.06.2019 11:00:00 27,8 26,0 4 2 SSW 1010,0 20
24.06.2019 10:00:00 - - - - - - -
24.06.2019 09:00:00 - - - - - - -
24.06.2019 08:00:00 26,4 24,0 7 4 W 1006,4 18
24.06.2019 07:00:00 - - - - - - -
24.06.2019 06:00:00 - - - - - - -
24.06.2019 05:00:00 26,6 26,1 4 2 W 1008,4 16
24.06.2019 04:00:00 - - - - - - -
24.06.2019 03:00:00 - - - - - - -
24.06.2019 02:00:00 27,2 25,9 4 2 W 1008,7 16
24.06.2019 01:00:00 - - - - - - -
24.06.2019 00:00:00 - - - - - - -
23.06.2019 23:00:00 27,8 26,5 4 2 W 1009,6 16
23.06.2019 22:00:00 - - - - - - -
23.06.2019 21:00:00 - - - - - - -
23.06.2019 20:00:00 29,0 27,2 4 2 WNW 1008,6 16
23.06.2019 19:00:00 - - - - - - -
23.06.2019 18:00:00 - - - - - - -
23.06.2019 17:00:00 30,8 28,3 4 2 W 1006,7 18
23.06.2019 16:00:00 - - - - - - -
23.06.2019 15:00:00 - - - - - - -
23.06.2019 14:00:00 31,8 28,0 4 2 SE 1007,2 20
23.06.2019 13:00:00 - - - - - - -
23.06.2019 12:00:00 - - - - - - -
23.06.2019 11:00:00 30,4 28,1 4 2 SE 1008,6 20
23.06.2019 10:00:00 - - - - - - -
23.06.2019 09:00:00 - - - - - - -
23.06.2019 08:00:00 29,0 26,7 4 2 NE 1008,7 20
23.06.2019 07:00:00 - - - - - - -
23.06.2019 06:00:00 - - - - - - -
23.06.2019 05:00:00 25,2 24,3 4 2 W 1007,6 18
23.06.2019 04:00:00 - - - - - - -
23.06.2019 03:00:00 - - - - - - -
23.06.2019 02:00:00 25,5 24,4 4 2 W 1007,8 12
23.06.2019 01:00:00 - - - - - - -
23.06.2019 00:00:00 - - - - - - -
22.06.2019 23:00:00 26,4 24,8 4 2 W 1009,3 15
22.06.2019 22:00:00 - - - - - - -
22.06.2019 21:00:00 - - - - - - -
22.06.2019 20:00:00 29,2 27,4 4 2 NE 1008,5 12
22.06.2019 19:00:00 - - - - - - -
22.06.2019 18:00:00 - - - - - - -
22.06.2019 17:00:00 31,7 28,3 4 2 E 1006,8 20
22.06.2019 16:00:00 - - - - - - -
22.06.2019 15:00:00 - - - - - - -
22.06.2019 14:00:00 32,2 27,9 7 4 SSE 1007,1 20
22.06.2019 13:00:00 - - - - - - -
22.06.2019 12:00:00 - - - - - - -
22.06.2019 11:00:00 32,0 28,2 7 4 E 1008,8 20
22.06.2019 10:00:00 - - - - - - -
22.06.2019 09:00:00 - - - - - - -
22.06.2019 08:00:00 28,9 27,2 4 2 S 1008,5 20
22.06.2019 07:00:00 - - - - - - -
22.06.2019 06:00:00 - - - - - - -
22.06.2019 05:00:00 25,4 24,9 4 2 WNW 1007,1 15
22.06.2019 04:00:00 - - - - - - -
22.06.2019 03:00:00 - - - - - - -
22.06.2019 02:00:00 26,4 24,5 4 2 WNW 1008,3 15
22.06.2019 01:00:00 - - - - - - -
22.06.2019 00:00:00 - - - - - - -
21.06.2019 23:00:00 27,6 24,4 4 2 W 1010,0 15
21.06.2019 22:00:00 - - - - - - -
21.06.2019 21:00:00 - - - - - - -
21.06.2019 20:00:00 28,8 26,5 4 2 ENE 1009,2 15
21.06.2019 19:00:00 - - - - - - -
21.06.2019 18:00:00 - - - - - - -
21.06.2019 17:00:00 31,6 27,8 7 4 E 1007,2 20
21.06.2019 16:00:00 - - - - - - -
21.06.2019 15:00:00 - - - - - - -
21.06.2019 14:00:00 32,0 27,4 7 4 E 1008,1 20
21.06.2019 13:00:00 - - - - - - -
21.06.2019 12:00:00 - - - - - - -
21.06.2019 11:00:00 31,6 28,3 7 4 ESE 1009,6 20
21.06.2019 10:00:00 - - - - - - -
21.06.2019 09:00:00 - - - - - - -
21.06.2019 08:00:00 28,4 27,4 4 2 WSW 1008,9 20
21.06.2019 07:00:00 - - - - - - -
21.06.2019 06:00:00 - - - - - - -
21.06.2019 05:00:00 25,8 25,0 4 2 WNW 1008,6 18
21.06.2019 04:00:00 - - - - - - -
21.06.2019 03:00:00 - - - - - - -
21.06.2019 02:00:00 26,6 25,5 4 2 W 1009,1 16
21.06.2019 01:00:00 - - - - - - -
21.06.2019 00:00:00 - - - - - - -
20.06.2019 23:00:00 28,0 26,4 4 2 NE 1009,8 16
20.06.2019 22:00:00 - - - - - - -
20.06.2019 21:00:00 - - - - - - -
20.06.2019 20:00:00 29,0 26,9 4 2 ENE 1008,8 16
20.06.2019 19:00:00 - - - - - - -
20.06.2019 18:00:00 - - - - - - -
20.06.2019 17:00:00 31,6 27,5 7 4 E 1007,6 18
20.06.2019 16:00:00 - - - - - - -
20.06.2019 15:00:00 - - - - - - -
20.06.2019 14:00:00 32,2 27,4 11 6 E 1008,4 20
20.06.2019 13:00:00 - - - - - - -
20.06.2019 12:00:00 - - - - - - -
20.06.2019 11:00:00 31,8 28,3 29 16 ENE 1009,6 20
20.06.2019 10:00:00 - - - - - - -
20.06.2019 09:00:00 - - - - - - -
20.06.2019 08:00:00 30,0 27,2 7 4 ESE 1009,6 20
20.06.2019 07:00:00 - - - - - - -
20.06.2019 06:00:00 - - - - - - -
20.06.2019 05:00:00 26,0 25,2 4 2 SW 1008,8 15
20.06.2019 04:00:00 - - - - - - -
20.06.2019 03:00:00 - - - - - - -
20.06.2019 02:00:00 26,2 24,6 4 2 W 1007,6 15
20.06.2019 01:00:00 - - - - - - -
20.06.2019 00:00:00 - - - - - - -
19.06.2019 23:00:00 26,4 24,8 4 2 N 1009,4 15
19.06.2019 22:00:00 - - - - - - -
19.06.2019 21:00:00 - - - - - - -
19.06.2019 20:00:00 29,0 26,9 4 2 NE 1009,4 15
19.06.2019 19:00:00 - - - - - - -
19.06.2019 18:00:00 - - - - - - -
19.06.2019 17:00:00 31,8 28,0 4 2 ENE 1007,4 18
19.06.2019 16:00:00 - - - - - - -
19.06.2019 15:00:00 - - - - - - -
19.06.2019 14:00:00 31,8 27,7 14 8 ENE 1008,1 20
19.06.2019 13:00:00 - - - - - - -
19.06.2019 12:00:00 - - - - - - -
19.06.2019 11:00:00 31,8 28,0 11 6 E 1009,8 20
19.06.2019 10:00:00 - - - - - - -
19.06.2019 09:00:00 - - - - - - -
19.06.2019 08:00:00 28,8 27,5 7 4 ENE 1009,9 20
19.06.2019 07:00:00 - - - - - - -
19.06.2019 06:00:00 - - - - - - -
19.06.2019 05:00:00 25,2 25,0 7 4 S 1009,8 12
19.06.2019 04:00:00 - - - - - - -
19.06.2019 03:00:00 - - - - - - -
19.06.2019 02:00:00 26,0 25,2 4 2 NW 1010,4 12
19.06.2019 01:00:00 - - - - - - -
19.06.2019 00:00:00 - - - - - - -
18.06.2019 23:00:00 26,4 24,8 4 2 NW 1010,9 15
18.06.2019 22:00:00 - - - - - - -

tt = temperature
td = dewpoint
ff = wind speed
dd = wind direction
ppp = reduced air pressure
vv = visibility

Next stations